Printer-friendly version

IAU Minor Planet Center

Minor Planet Center

MPEC 2002-T29 : 2002 TY59

The following Minor Planet Electronic Circular may be linked-to from your own Web pages, but must not otherwise be redistributed electronically.


Read MPEC 2002-T28 Read MPEC 2002-T30


M.P.E.C. 2002-T29                                Issued 2002 Oct. 6, 16:52 UT

     The Minor Planet Electronic Circulars contain information on unusual
         minor planets and routine data on comets.  They are published
   on behalf of Commission 20 of the International Astronomical Union by the
          Minor Planet Center, Smithsonian Astrophysical Observatory,
                          Cambridge, MA 02138, U.S.A.

             Prepared using the Tamkin Foundation Computer Network

                              MPC@CFA.HARVARD.EDU
          URL http://cfa-www.harvard.edu/iau/mpc.html  ISSN 1523-6714

                                   2002 TY59

Observations:
     K02T59Y* C2002 10 04.18217 22 44 23.56 -01 55 24.1          17.8        704
     K02T59Y  C2002 10 04.19787 22 44 36.12 -01 45 58.0          17.3        704
     K02T59Y  C2002 10 04.21366 22 44 48.59 -01 36 34.5          17.8        704
     K02T59Y  C2002 10 04.22927 22 45 00.79 -01 27 24.1          17.2        704
     K02T59Y  C2002 10 04.24487 22 45 12.93 -01 18 20.5          17.4        704
     K02T59Y  C2002 10 05.16079 22 57 11.16 +05 13 10.5          18.3        704
     K02T59Y  C2002 10 05.16695 22 57 13.55 +05 15 07.3          19.6        704
     K02T59Y  C2002 10 05.16706 22 57 13.56 +05 15 07.5          18.3        704
     K02T59Y  C2002 10 05.17548 22 57 16.68 +05 17 47.8          18.5        704
     K02T59Y  C2002 10 05.18241 22 57 19.28 +05 19 57.1          18.4        704
     K02T59Y  C2002 10 05.18276 22 57 19.40 +05 20 03.9          17.9        704
     K02T59Y  C2002 10 05.18287 22 57 19.47 +05 20 05.3          18.7        704
     K02T59Y  C2002 10 05.18298 22 57 19.54 +05 20 07.9          19.5        704
     K02T59Y  C2002 10 05.18993 22 57 21.95 +05 22 18.9          18.5        704
     K02T59Y  C2002 10 05.19004 22 57 22.08 +05 22 20.1          18.0        704
     K02T59Y  C2002 10 05.19798 22 57 25.01 +05 24 47.4          18.4        704
     K02T59Y  C2002 10 05.19833 22 57 25.11 +05 24 53.6          17.6        704
     K02T59Y  C2002 10 05.19843 22 57 25.19 +05 24 55.2          18.3        704
     K02T59Y  C2002 10 05.19854 22 57 25.23 +05 24 58.1          19.1        704
     K02T59Y  C2002 10 05.20439 22 57 27.34 +05 26 46.6          18.8        704
     K02T59Y  C2002 10 05.20450 22 57 27.35 +05 26 48.2          18.5        704
     K02T59Y  C2002 10 05.21355 22 57 30.64 +05 29 34.0          18.5        704
     K02T59Y  C2002 10 05.21389 22 57 30.72 +05 29 40.9          17.9        704
     K02T59Y  C2002 10 05.21406 22 57 30.83 +05 29 43.8          18.4        704
     K02T59Y  C2002 10 05.21416 22 57 30.86 +05 29 45.9          19.2        704
     K02T59Y  C2002 10 05.21892 22 57 32.60 +05 31 13.0          18.4        704
     K02T59Y  C2002 10 05.21904 22 57 32.61 +05 31 14.5          17.8        704
     K02T59Y  C2002 10 05.22922 22 57 36.26 +05 34 20.0          18.2        704
     K02T59Y  C2002 10 05.22957 22 57 36.37 +05 34 26.5          17.9        704
     K02T59Y  C2002 10 05.22968 22 57 36.42 +05 34 28.4          18.3        704
     K02T59Y  C2002 10 05.22979 22 57 36.50 +05 34 31.0          19.0        704
     K02T59Y  C2002 10 05.24476 22 57 41.82 +05 39 00.5          18.1        704
     K02T59Y  C2002 10 06.24167 23 04 51.59 +09 31 23.7          18.3 R      651
     K02T59Y  C2002 10 06.24275 23 04 51.81 +09 31 35.2          18.1 R      651
     K02T59Y  C2002 10 06.24372 23 04 51.99 +09 31 46.1          18.1 R      651
     K02T59Y  C2002 10 06.30591 23 05 07.25 +09 42 27.0                      670
     K02T59Y  C2002 10 06.30749 23 05 00.13 +09 42 04.3          18.1 R      649
     K02T59Y  C2002 10 06.30949 23 05 00.61 +09 42 25.0          18.1 R      649
     K02T59Y  C2002 10 06.31150 23 05 01.08 +09 42 45.9          18.3 R      649
     K02T59Y  C2002 10 06.34607 23 05 15.14 +09 49 19.9          19.2 R      670

Observer details:
649 Powell Observatory, Louisburg.  Observer K. Smalley.  0.75-m Newtonian
    + CCD.
651 Grasslands Observatory, Tucson.  Observer J. E. McGaha.  0.62-m f/5.1
    reflector + CCD.
670 Camarillo.  Observer J. E. Rogers.  0.30-m f/6.7 Helin Telescope + CCD.
704 Lincoln Laboratory ETS, New Mexico.  Observers M. Blythe, F. Shelly,
    M. Bezpalko, R. Huber, L. Manguso, S. Adams, D. Torres, T. Brothers,
    S. Partridge.  Measurers J. Stuart, R. Sayer, J. B. Evans, H. Viggh.  1.0-m
    f/2.15 reflector + CCD.

Orbital elements:
2002 TY59
Epoch 2002 Nov. 22.0 TT = JDT 2452600.5                 MPC
M 121.31771              (2000.0)            P               Q
n   0.95817349     Peri.  259.05118     -0.02000463     +0.99960494
a   1.0189979      Node     9.86676     -0.86641366     -0.00747829
e   0.2339971      Incl.    6.61593     -0.49892602     -0.02709306
P   1.03           H   25.9           G   0.15           U   7
Residuals in seconds of arc
021004 704  0.0   0.4-    021005 704  0.3-  0.0     021005 704  0.3-  0.2+
021004 704  0.3-  0.6-    021005 704  0.1+  0.1-    021005 704  0.1-  0.1+
021004 704  0.4-  0.0     021005 704  0.3-  0.4-    021005 704  0.5+  0.7+
021004 704  0.3-  0.2+    021005 704  0.3+  0.6-    021005 704  0.1+  0.2+
021004 704  0.3+  0.3+    021005 704  0.3+  0.2+    021006 651  0.1+  0.0
021005 704  0.1-  0.3+    021005 704  0.1+  0.7+    021006 651  0.4+  0.1-
021005 704  0.6+  0.4+    021005 704  0.3-  0.2+    021006 651  0.4+  0.3+
021005 704  0.2+  1.5-    021005 704  0.0   0.3-    021006 670  0.1+  1.5-
021005 704  0.5-  0.1+    021005 704  0.6-  0.3+    021006 649  0.1-  0.3+
021005 704  0.1-  0.6-    021005 704  0.1+  0.1+    021006 649  0.1+  0.5+
021005 704  0.3-  0.3-    021005 704  0.0   0.4+    021006 649  0.1+  0.8+
021005 704  0.2+  1.0-    021005 704  0.4+  0.4+    021006 670  0.9-  0.3-
021005 704  0.6+  0.4-    021005 704  0.1-  0.3-
021005 704  1.7-  0.9+    021005 704  0.0   0.0

Ephemeris:
2002 TY59                a,e,i = 1.02, 0.23, 7                   q = 0.7806
Date    TT    R. A. (2000) Decl.     Delta      r     Elong.  Phase     V
2002 10 03    22 05.80   -22 04.9    0.0068   1.006   135.2    44.5    16.8
2002 10 04    22 40.75   -03 45.9    0.011    1.010   149.4    30.2    17.4
2002 10 05    22 55.41   +04 24.6    0.015    1.014   153.3    26.3    18.0
2002 10 06    23 03.46   +08 48.0    0.020    1.018   154.2    25.3    18.6
2002 10 07    23 08.57   +11 29.8    0.024    1.022   154.2    25.2    19.0
2002 10 08    23 12.15   +13 18.5    0.029    1.026   153.9    25.4    19.4
2002 10 09    23 14.82   +14 36.1    0.034    1.030   153.5    25.7    19.8
2002 10 10    23 16.93   +15 34.1    0.039    1.034   153.0    26.0    20.1
2002 10 11    23 18.66   +16 18.8    0.044    1.037   152.5    26.4    20.4
2002 10 12    23 20.12   +16 54.3    0.049    1.041   151.9    26.8    20.6
2002 10 13    23 21.41   +17 23.0    0.054    1.045   151.4    27.2    20.9
2002 10 14    23 22.56   +17 46.5    0.059    1.049   150.8    27.6    21.1
2002 10 15    23 23.61   +18 06.1    0.064    1.053   150.3    28.0    21.3
2002 10 16    23 24.59   +18 22.6    0.069    1.057   149.7    28.4    21.5
2002 10 17    23 25.52   +18 36.5    0.074    1.060   149.1    28.8    21.6
2002 10 18    23 26.41   +18 48.5    0.079    1.064   148.6    29.2    21.8
2002 10 19    23 27.27   +18 58.7    0.084    1.068   148.0    29.6    21.9
2002 10 20    23 28.12   +19 07.5    0.089    1.072   147.4    30.0    22.1
2002 10 21    23 28.95   +19 15.2    0.094    1.075   146.8    30.4    22.2
2002 10 22    23 29.78   +19 21.8    0.099    1.079   146.2    30.8    22.4
2002 10 23    23 30.60   +19 27.6    0.104    1.083   145.6    31.2    22.5

Brian G. Marsden             (C) Copyright 2002 MPC           M.P.E.C. 2002-T29

Read MPEC 2002-T28 Read MPEC 2002-T30


Our Web policy. Index to the CBAT/MPC/ICQ pages.


Valid HTML 4.01!